Location: Budapest
(47.4979°N, 19.0402°E)
Time: 17:14:01
(UTC+02:00)

ISS - Visible Passes

Search period start: 23 October 2017 00:00
Search period end: 01 November 2017 23:00
Orbit: 400 x 408 km, 51.6° (Epoch: 24 October)

Date Brightness Start Highest point End Pass type
(mag) Time Alt. Az. Time Alt. Az. Time Alt. Az.
29 Oct -0.7 05:13:44 10° SSE 05:15:09 12° SE 05:16:36 10° ESE visible
31 Oct -1.7 05:03:44 10° SSW 05:06:28 25° SE 05:09:11 10° E visible
01 Nov -1.1 04:13:05 13° SSE 04:14:13 15° SE 04:16:09 10° E visible
01 Nov -3.7 05:47:00 10° WSW 05:50:15 80° SSE 05:53:30 10° ENE visible
